Time,TemperatureF,DewpointF,PressureIn,WindDirection,WindDirectionDegrees,WindSpeedMPH,WindSpeedGustMPH,Humidity,HourlyPrecipIn,Conditions,Clouds,dailyrainin,SoftwareType,DateUTC
2013-03-03 00:04:00,26.2,25.7,29.66,WNW,292,2.7,-999.0,98,-99.99,,,0.00,Acu-Link.com,2013-03-03 05:04:00,
2013-03-03 00:20:00,25.9,25.4,29.66,SSW,202,4.7,-999.0,98,-99.99,,,0.00,Acu-Link.com,2013-03-03 05:20:00,
2013-03-03 00:35:00,25.5,25.0,29.65,NE,45,2.7,-999.0,98,-99.99,,,0.00,Acu-Link.com,2013-03-03 05:35:00,
2013-03-03 00:50:00,25.3,24.8,29.65,ESE,112,6.3,-999.0,98,-99.99,,,0.00,Acu-Link.com,2013-03-03 05:50:00,
2013-03-03 01:05:00,25.2,24.5,29.66,South,180,2.7,-999.0,97,-99.99,,,0.00,Acu-Link.com,2013-03-03 06:05:00,
2013-03-03 01:20:00,25.0,24.0,29.66,NE,45,4.7,-999.0,96,-99.99,,,0.00,Acu-Link.com,2013-03-03 06:20:00,
2013-03-03 01:36:00,24.8,23.8,29.66,SE,135,3.7,-999.0,96,-99.99,,,0.00,Acu-Link.com,2013-03-03 06:36:00,
2013-03-03 01:51:00,24.6,23.1,29.67,SSW,202,3.7,-999.0,94,-99.99,,,0.00,Acu-Link.com,2013-03-03 06:51:00,
2013-03-03 02:06:00,24.4,22.9,29.66,ESE,112,4.2,-999.0,94,-99.99,,,0.00,Acu-Link.com,2013-03-03 07:06:00,
2013-03-03 02:22:00,24.1,22.6,29.65,ESE,112,3.7,-999.0,94,-99.99,,,0.00,Acu-Link.com,2013-03-03 07:22:00,
2013-03-03 02:37:00,24.1,22.1,29.65,NW,315,3.7,-999.0,92,-99.99,,,0.00,Acu-Link.com,2013-03-03 07:37:00,
2013-03-03 02:52:00,23.9,21.7,29.64,ESE,112,5.8,-999.0,91,-99.99,,,0.00,Acu-Link.com,2013-03-03 07:52:00,
2013-03-03 03:07:00,23.7,21.5,29.64,North,0,2.7,-999.0,91,-99.99,,,0.00,Acu-Link.com,2013-03-03 08:07:00,
2013-03-03 03:22:00,23.7,22.2,29.65,ESE,112,5.8,-999.0,94,-99.99,,,0.00,Acu-Link.com,2013-03-03 08:22:00,
2013-03-03 03:38:00,23.7,22.5,29.65,SSE,157,6.8,-999.0,95,-99.99,,,0.00,Acu-Link.com,2013-03-03 08:38:00,
2013-03-03 03:53:00,23.9,22.9,29.64,North,0,20.7,-999.0,96,-99.99,,,0.00,Acu-Link.com,2013-03-03 08:53:00,
2013-03-03 04:19:00,23.9,23.4,29.64,SSE,157,4.7,-999.0,98,-99.99,,,0.00,Acu-Link.com,2013-03-03 09:19:00,
2013-03-03 04:34:00,23.2,22.2,29.64,South,180,5.3,-999.0,96,-99.99,,,0.00,Acu-Link.com,2013-03-03 09:34:00,
2013-03-03 04:49:00,22.8,20.6,29.65,East,90,8.9,-999.0,91,-99.99,,,0.00,Acu-Link.com,2013-03-03 09:49:00,
2013-03-03 05:20:00,22.5,20.3,29.66,NNE,22,2.7,-999.0,91,-99.99,,,0.00,Acu-Link.com,2013-03-03 10:20:00,
2013-03-03 05:35:00,22.3,18.5,29.66,SE,135,6.3,-999.0,85,-99.99,,,0.00,Acu-Link.com,2013-03-03 10:35:00,
2013-03-03 05:50:00,22.1,18.6,29.67,SSE,157,4.2,-999.0,86,-99.99,,,0.00,Acu-Link.com,2013-03-03 10:50:00,
2013-03-03 06:05:00,22.3,18.8,29.67,SSE,157,2.7,-999.0,86,-99.99,,,0.00,Acu-Link.com,2013-03-03 11:05:00,
2013-03-03 06:20:00,22.1,19.6,29.67,NW,315,4.7,-999.0,90,-99.99,,,0.00,Acu-Link.com,2013-03-03 11:20:00,
2013-03-03 06:36:00,21.9,19.7,29.67,WNW,292,2.2,-999.0,91,-99.99,,,0.00,Acu-Link.com,2013-03-03 11:36:00,
2013-03-03 06:51:00,21.7,19.2,29.67,ENE,67,3.2,-999.0,90,-99.99,,,0.00,Acu-Link.com,2013-03-03 11:51:00,
2013-03-03 07:06:00,21.7,18.7,29.66,NE,45,2.7,-999.0,88,-99.99,,,0.00,Acu-Link.com,2013-03-03 12:06:00,
2013-03-03 07:21:00,22.1,18.6,29.67,SSW,202,2.7,-999.0,86,-99.99,,,0.00,Acu-Link.com,2013-03-03 12:21:00,
2013-03-03 07:36:00,22.8,19.8,29.67,East,90,2.2,-999.0,88,-99.99,,,0.00,Acu-Link.com,2013-03-03 12:36:00,
2013-03-03 07:52:00,23.2,20.4,29.68,NE,45,3.7,-999.0,89,-99.99,,,0.00,Acu-Link.com,2013-03-03 12:52:00,
2013-03-03 08:07:00,24.1,20.8,29.68,East,90,2.7,-999.0,87,-99.99,,,0.00,Acu-Link.com,2013-03-03 13:07:00,
2013-03-03 08:22:00,24.4,20.8,29.68,ENE,67,2.7,-999.0,86,-99.99,,,0.00,Acu-Link.com,2013-03-03 13:22:00,
2013-03-03 08:37:00,24.8,19.8,29.68,SSW,202,5.3,-999.0,81,-99.99,,,0.00,Acu-Link.com,2013-03-03 13:37:00,
2013-03-03 08:53:00,25.3,20.6,29.68,East,90,2.7,-999.0,82,-99.99,,,0.00,Acu-Link.com,2013-03-03 13:53:00,
2013-03-03 09:08:00,26.2,20.9,29.68,ENE,67,4.7,-999.0,80,-99.99,,,0.00,Acu-Link.com,2013-03-03 14:08:00,
2013-03-03 09:24:00,28.8,22.2,29.69,South,180,10.4,-999.0,76,-99.99,,,0.00,Acu-Link.com,2013-03-03 14:24:00,
2013-03-03 09:39:00,29.7,21.8,29.68,NE,45,5.3,-999.0,72,-99.99,,,0.00,Acu-Link.com,2013-03-03 14:39:00,
2013-03-03 09:54:00,31.1,22.8,29.68,South,180,5.8,-999.0,71,-99.99,,,0.00,Acu-Link.com,2013-03-03 14:54:00,
2013-03-03 10:09:00,30.9,23.6,29.67,SW,225,3.7,-999.0,74,-99.99,,,0.00,Acu-Link.com,2013-03-03 15:09:00,
2013-03-03 10:25:00,30.0,22.4,29.68,SSW,202,5.3,-999.0,73,-99.99,,,0.00,Acu-Link.com,2013-03-03 15:25:00,
2013-03-03 10:40:00,32.9,24.5,29.68,ESE,112,3.7,-999.0,71,-99.99,,,0.00,Acu-Link.com,2013-03-03 15:40:00,
2013-03-03 10:55:00,32.9,24.5,29.67,East,90,3.7,-999.0,71,-99.99,,,0.00,Acu-Link.com,2013-03-03 15:55:00,
2013-03-03 11:10:00,33.8,24.7,29.68,SSE,157,2.7,-999.0,69,-99.99,,,0.00,Acu-Link.com,2013-03-03 16:10:00,
2013-03-03 11:25:00,33.3,23.5,29.68,SSE,157,4.2,-999.0,67,-99.99,,,0.00,Acu-Link.com,2013-03-03 16:25:00,
2013-03-03 11:40:00,35.1,25.6,29.67,NNW,337,3.2,-999.0,68,-99.99,,,0.00,Acu-Link.com,2013-03-03 16:40:00,
2013-03-03 11:56:00,32.2,23.9,29.69,SE,135,5.3,-999.0,71,-99.99,,,0.00,Acu-Link.com,2013-03-03 16:56:00,
2013-03-03 12:11:00,33.3,24.6,29.68,SSE,157,4.7,-999.0,70,-99.99,,,0.00,Acu-Link.com,2013-03-03 17:11:00,
2013-03-03 12:26:00,33.3,24.6,29.68,ENE,67,3.2,-999.0,70,-99.99,,,0.00,Acu-Link.com,2013-03-03 17:26:00,
2013-03-03 12:41:00,35.4,26.3,29.66,NNE,22,3.7,-999.0,69,-99.99,,,0.00,Acu-Link.com,2013-03-03 17:41:00,
2013-03-03 12:56:00,36.0,26.1,29.66,ESE,112,4.2,-999.0,67,-99.99,,,0.00,Acu-Link.com,2013-03-03 17:56:00,
2013-03-03 13:12:00,34.3,23.8,29.66,SW,225,6.8,-999.0,65,-99.99,,,0.00,Acu-Link.com,2013-03-03 18:12:00,
2013-03-03 13:27:00,34.3,23.4,29.66,ESE,112,4.7,-999.0,64,-99.99,,,0.00,Acu-Link.com,2013-03-03 18:27:00,
2013-03-03 13:42:00,34.7,25.2,29.67,SE,135,3.2,-999.0,68,-99.99,,,0.00,Acu-Link.com,2013-03-03 18:42:00,
2013-03-03 13:57:00,36.1,25.5,29.67,SE,135,7.3,-999.0,65,-99.99,,,0.00,Acu-Link.com,2013-03-03 18:57:00,
2013-03-03 14:13:00,35.2,25.0,29.65,WNW,292,3.7,-999.0,66,-99.99,,,0.00,Acu-Link.com,2013-03-03 19:13:00,
2013-03-03 14:28:00,35.4,25.2,29.64,SSE,157,8.3,-999.0,66,-99.99,,,0.00,Acu-Link.com,2013-03-03 19:28:00,
2013-03-03 14:43:00,37.0,26.3,29.64,SE,135,3.7,-999.0,65,-99.99,,,0.00,Acu-Link.com,2013-03-03 19:43:00,
2013-03-03 14:58:00,36.3,25.3,29.64,NE,45,4.7,-999.0,64,-99.99,,,0.00,Acu-Link.com,2013-03-03 19:58:00,
2013-03-03 15:13:00,36.7,25.3,29.64,North,0,3.2,-999.0,63,-99.99,,,0.00,Acu-Link.com,2013-03-03 20:13:00,
2013-03-03 15:29:00,34.9,24.0,29.65,ESE,112,3.7,-999.0,64,-99.99,,,0.00,Acu-Link.com,2013-03-03 20:29:00,
2013-03-03 15:44:00,34.5,22.8,29.65,ENE,67,5.8,-999.0,62,-99.99,,,0.00,Acu-Link.com,2013-03-03 20:44:00,
2013-03-03 15:59:00,33.8,22.9,29.65,South,180,6.3,-999.0,64,-99.99,,,0.00,Acu-Link.com,2013-03-03 20:59:00,
2013-03-03 16:14:00,34.0,22.7,29.65,NNE,22,3.7,-999.0,63,-99.99,,,0.00,Acu-Link.com,2013-03-03 21:14:00,
2013-03-03 16:29:00,33.1,22.6,29.65,NE,45,2.2,-999.0,65,-99.99,,,0.00,Acu-Link.com,2013-03-03 21:29:00,
2013-03-03 16:45:00,32.7,21.9,29.64,SE,135,3.2,-999.0,64,-99.99,,,0.00,Acu-Link.com,2013-03-03 21:45:00,
2013-03-03 17:00:00,31.5,20.7,29.64,North,0,2.7,-999.0,64,-99.99,,,0.00,Acu-Link.com,2013-03-03 22:00:00,
2013-03-03 17:15:00,30.7,21.4,29.65,SSW,202,2.7,-999.0,68,-99.99,,,0.00,Acu-Link.com,2013-03-03 22:15:00,
2013-03-03 17:30:00,29.5,21.3,29.66,ENE,67,2.2,-999.0,71,-99.99,,,0.00,Acu-Link.com,2013-03-03 22:30:00,
2013-03-03 17:45:00,28.6,21.1,29.66,ESE,112,6.3,-999.0,73,-99.99,,,0.00,Acu-Link.com,2013-03-03 22:45:00,
2013-03-03 18:01:00,28.0,20.8,29.66,ESE,112,8.9,-999.0,74,-99.99,,,0.00,Acu-Link.com,2013-03-03 23:01:00,
2013-03-03 18:16:00,27.7,21.1,29.67,ESE,112,4.7,-999.0,76,-99.99,,,0.00,Acu-Link.com,2013-03-03 23:16:00,
2013-03-03 18:31:00,27.0,20.8,29.69,ENE,67,4.2,-999.0,77,-99.99,,,0.00,Acu-Link.com,2013-03-03 23:31:00,
2013-03-03 18:46:00,26.4,20.8,29.69,SW,225,2.2,-999.0,79,-99.99,,,0.00,Acu-Link.com,2013-03-03 23:46:00,
2013-03-03 19:02:00,26.1,21.1,29.70,NE,45,2.2,-999.0,81,-99.99,,,0.00,Acu-Link.com,2013-03-04 00:02:00,
2013-03-03 19:17:00,25.7,21.5,29.70,ENE,67,2.2,-999.0,84,-99.99,,,0.00,Acu-Link.com,2013-03-04 00:17:00,
2013-03-03 19:32:00,25.5,22.2,29.70,NNE,22,3.2,-999.0,87,-99.99,,,0.00,Acu-Link.com,2013-03-04 00:32:00,
2013-03-03 19:47:00,25.3,21.7,29.70,SSE,157,2.7,-999.0,86,-99.99,,,0.00,Acu-Link.com,2013-03-04 00:47:00,
2013-03-03 20:02:00,25.2,21.9,29.70,South,180,3.2,-999.0,87,-99.99,,,0.00,Acu-Link.com,2013-03-04 01:02:00,
2013-03-03 20:18:00,25.2,21.9,29.70,East,90,2.2,-999.0,87,-99.99,,,0.00,Acu-Link.com,2013-03-04 01:18:00,
2013-03-03 20:33:00,25.0,21.4,29.69,NNE,22,4.2,-999.0,86,-99.99,,,0.00,Acu-Link.com,2013-03-04 01:33:00,
2013-03-03 20:48:00,25.2,21.1,29.69,SSE,157,4.2,-999.0,84,-99.99,,,0.00,Acu-Link.com,2013-03-04 01:48:00,
2013-03-03 21:03:00,25.2,20.8,29.69,NE,45,4.7,-999.0,83,-99.99,,,0.00,Acu-Link.com,2013-03-04 02:03:00,
2013-03-03 21:18:00,25.0,20.9,29.70,ESE,112,3.7,-999.0,84,-99.99,,,0.00,Acu-Link.com,2013-03-04 02:18:00,
2013-03-03 21:34:00,24.8,20.7,29.70,SE,135,7.3,-999.0,84,-99.99,,,0.00,Acu-Link.com,2013-03-04 02:34:00,
2013-03-03 21:49:00,24.8,20.4,29.69,SSE,157,5.8,-999.0,83,-99.99,,,0.00,Acu-Link.com,2013-03-04 02:49:00,
2013-03-03 22:04:00,24.6,20.2,29.70,WNW,292,3.7,-999.0,83,-99.99,,,0.00,Acu-Link.com,2013-03-04 03:04:00,
2013-03-03 22:19:00,24.6,19.6,29.71,NE,45,8.3,-999.0,81,-99.99,,,0.00,Acu-Link.com,2013-03-04 03:19:00,
2013-03-03 22:35:00,24.4,19.7,29.72,South,180,5.8,-999.0,82,-99.99,,,0.00,Acu-Link.com,2013-03-04 03:35:00,
2013-03-03 22:50:00,23.9,19.2,29.72,East,90,3.2,-999.0,82,-99.99,,,0.00,Acu-Link.com,2013-03-04 03:50:00,
2013-03-03 23:05:00,24.3,19.6,29.72,East,90,3.7,-999.0,82,-99.99,,,0.00,Acu-Link.com,2013-03-04 04:05:00,
2013-03-03 23:20:00,24.1,19.7,29.72,ESE,112,3.7,-999.0,83,-99.99,,,0.00,Acu-Link.com,2013-03-04 04:20:00,
2013-03-03 23:35:00,23.9,19.8,29.72,North,0,2.7,-999.0,84,-99.99,,,0.00,Acu-Link.com,2013-03-04 04:35:00,
2013-03-03 23:51:00,23.9,19.5,29.72,SE,135,6.3,-999.0,83,-99.99,,,0.00,Acu-Link.com,2013-03-04 04:51:00,